GEFSNE_500_meanwind_000.txt.gz
Wind_Speed
80 80 79 78 76 74 73 71 71 71 69 69 68 66 64 61 58 57 54 55 51 49 53 54 55 49 44 41 43 44 45 46 45 46 45 43 46 48
85 84 83 81 77 75 74 72 70 69 69 66 67 69 67 64 62 60 58 56 55 56 59 58 58 53 47 44 46 46 46 51 49 48 46 45 48 48
85 84 83 81 80 78 76 75 74 72 70 67 63 60 61 60 59 58 57 55 52 51 50 52 54 50 50 48 46 48 47 50 52 51 49 47 48 48
84 82 80 79 77 77 77 77 75 73 71 70 64 59 56 55 55 54 54 56 54 50 50 51 51 51 48 48 47 46 48 50 53 55 54 51 50 50
82 81 79 78 76 75 75 75 76 75 73 72 68 62 58 55 54 52 50 50 49 48 52 54 52 52 47 46 49 47 49 57 56 58 59 55 53 53
79 79 78 77 76 74 74 74 75 74 71 69 67 62 59 55 55 53 51 49 48 52 53 53 51 51 45 42 48 50 48 51 56 56 62 59 57 58
73 73 72 72 72 73 73 72 73 71 68 67 65 63 59 56 56 55 54 52 52 58 54 48 53 55 56 51 50 52 51 47 55 60 61 60 57 56
71 71 71 71 70 70 70 70 68 67 66 65 64 62 60 58 58 59 57 54 53 53 51 46 50 51 46 44 44 49 54 51 52 59 61 59 56 54
75 75 74 74 74 74 72 70 68 67 67 66 64 62 62 60 60 60 59 57 53 52 54 49 46 49 46 48 51 58 59 55 51 57 62 59 57 54
85 84 82 80 79 80 77 74 71 69 68 67 66 64 62 61 60 60 58 57 54 49 44 48 50 48 48 51 52 54 53 48 51 57 58 55 52 52
89 86 82 79 75 75 74 72 70 66 64 63 61 59 58 57 57 56 53 51 48 45 41 39 46 52 49 48 48 46 41 43 48 50 50 51 52 55
84 78 73 68 65 63 64 63 62 60 57 55 51 49 50 50 49 47 45 42 39 38 38 39 40 44 45 43 42 41 39 42 47 49 49 51 54 54
77 70 64 59 56 54 53 52 50 49 46 45 43 43 44 44 42 38 36 36 35 38 39 38 37 38 38 35 36 35 37 41 44 47 49 52 52 50
66 60 55 49 45 44 43 42 40 40 39 37 36 34 33 34 33 30 28 29 35 38 38 36 34 33 34 33 35 36 37 38 40 44 47 48 48 47
52 50 48 41 37 35 34 33 33 34 33 30 28 26 25 25 26 26 24 25 33 36 36 34 32 34 33 33 35 37 37 39 42 45 46 46 45 43
39 40 42 37 31 27 26 27 28 28 26 24 23 22 21 23 25 24 22 23 28 33 32 31 28 24 24 27 31 35 39 43 45 45 46 45 43 41
31 31 32 32 27 23 22 22 22 21 20 19 19 19 17 20 24 20 18 17 18 24 28 26 22 20 24 30 34 38 41 44 45 45 44 42 39 35
30 28 27 27 24 19 18 16 15 17 18 17 16 15 17 21 22 18 13 13 13 13 14 15 17 20 25 30 34 39 42 43 42 42 41 38 34 29
29 26 24 22 17 16 14 12 13 14 13 11 11 13 17 17 16 16 15 17 15 12 13 16 18 23 28 33 36 38 39 39 38 36 34 35 37 37
27 24 21 15 13 14 11 8 8 8 7 6 7 10 12 14 14 15 20 20 15 12 14 18 22 27 32 33 34 33 32 31 33 37 39 41 42 42
22 20 15 11 14 12 10 7 4 3 5 5 4 5 9 11 14 18 20 18 14 14 17 21 25 29 30 31 31 30 32 37 41 42 43 42 41 37
19 15 9 14 14 12 11 5 3 5 6 6 7 8 8 11 14 14 12 10 11 15 19 22 25 27 28 29 34 38 41 43 42 39 34 29 22 14
15 9 11 16 14 12 10 4 5 8 9 12 13 13 12 13 10 5 4 7 12 16 19 21 24 26 31 36 39 40 38 33 25 17 13 11 10 9

GEFSNE_500_meanwind_006.txt.gz
Wind_Speed
101 103 103 102 100 98 95 92 91 92 92 86 81 77 75 73 73 74 73 71 72 72 71 71 71 69 64 61 59 58 57 57 57 59 59 55 52 49
104 103 101 99 95 90 85 78 75 77 79 74 72 70 68 68 68 70 71 72 72 72 71 69 68 67 64 62 60 61 59 57 57 58 58 57 55 52
103 100 95 90 84 77 71 66 65 68 71 68 65 64 65 66 67 68 68 68 68 68 68 67 66 66 64 64 63 62 59 56 54 56 58 58 57 55
95 90 84 77 70 65 62 61 63 66 70 70 67 65 65 66 67 66 66 66 66 65 65 64 64 64 64 64 65 63 61 58 56 56 57 58 56 55
84 79 75 70 66 65 65 66 68 70 74 78 77 74 71 70 70 68 65 64 64 65 64 63 63 63 63 63 63 62 61 60 58 59 60 57 54 54
76 74 73 72 72 71 72 74 76 79 81 85 86 84 81 78 76 73 68 64 63 63 65 64 64 64 63 62 62 61 60 61 61 61 61 59 55 54
75 75 76 77 78 80 81 83 86 88 90 93 93 90 86 81 78 75 72 65 60 60 62 64 65 64 63 63 61 60 59 58 59 60 58 56 55 54
81 81 82 84 86 88 91 93 94 96 97 96 92 85 79 74 71 69 67 63 58 56 59 60 61 62 62 62 60 59 58 56 55 55 53 53 53 53
89 89 89 89 91 93 93 94 93 92 89 86 80 72 67 63 60 57 57 57 55 54 57 56 57 58 59 60 60 59 58 58 56 54 52 53 55 55
82 80 79 79 79 80 81 79 76 71 67 64 61 58 55 50 46 46 47 50 50 51 54 54 54 56 57 59 60 60 60 59 58 55 51 51 55 57
66 65 65 65 62 61 61 60 56 52 48 46 46 45 43 39 36 36 38 41 43 45 49 51 52 54 55 57 58 59 60 59 55 51 49 48 51 56
58 57 56 56 53 51 50 49 45 41 36 33 33 34 32 28 27 28 30 33 35 37 40 46 48 49 49 49 50 53 54 52 47 44 43 43 45 49
56 53 51 49 48 45 44 43 41 37 30 24 22 22 22 20 21 23 26 29 29 28 30 36 39 40 39 37 38 41 42 41 38 36 38 40 41 43
53 48 46 45 44 42 40 39 37 32 25 16 12 12 13 15 17 20 24 26 25 20 20 24 27 30 30 29 31 34 35 35 33 33 35 38 39 40
47 44 43 43 41 39 38 37 33 26 17 8 6 7 10 12 16 19 21 21 18 14 13 16 20 23 25 27 28 31 32 31 30 32 34 35 36 35
42 41 42 42 40 38 36 33 28 19 7 3 4 6 8 11 14 15 14 12 11 10 10 11 15 18 21 23 25 27 28 28 29 30 31 31 30 30
41 40 41 39 35 33 32 29 20 9 3 1 3 5 7 9 9 8 8 8 8 9 9 10 14 17 19 20 22 24 26 27 27 28 28 28 29 32
41 40 39 36 31 28 25 18 9 3 3 5 6 6 5 6 6 5 3 4 5 4 5 7 11 14 16 17 18 21 23 24 24 25 27 31 34 37
40 38 36 31 27 23 15 6 3 5 8 11 11 7 1 5 5 3 2 2 2 2 5 9 12 14 15 16 17 18 20 22 25 28 30 32 33 34
36 34 31 25 21 12 4 3 6 10 13 15 11 4 2 5 5 4 2 2 4 8 10 12 12 12 13 14 16 18 21 23 25 27 28 30 31 32
30 29 24 18 10 3 3 6 10 14 15 13 8 3 2 4 5 4 4 6 9 10 10 10 11 12 13 16 18 20 21 23 25 26 28 30 32 34
26 22 16 8 2 3 6 10 14 15 14 11 9 7 6 5 5 5 6 8 10 11 12 12 13 14 15 16 18 20 23 25 27 30 32 34 35 36
20 15 7 3 4 5 9 13 15 13 13 14 15 14 13 11 8 5 5 6 8 10 11 12 13 15 17 19 21 24 26 28 29 30 30 29 28 27

GEFSNE_500_meanwind_012.txt.gz
Wind_Speed
93 96 98 100 102 103 104 105 108 110 108 100 95 91 91 89 85 80 75 71 71 72 72 73 76 81 86 91 93 92 91 88 86 84 83 80 75 71
97 99 101 103 103 103 103 102 102 103 103 95 89 84 85 86 84 80 75 71 69 69 68 66 66 68 72 77 85 91 93 93 90 86 83 81 80 75
99 102 103 104 103 102 100 98 96 96 96 91 86 81 80 83 83 82 79 74 71 69 68 66 64 62 62 64 68 74 81 87 90 90 88 85 81 78
102 103 103 102 100 97 95 92 90 88 88 85 79 74 71 72 76 79 81 80 76 73 71 69 67 64 62 60 60 62 66 72 78 83 87 88 82 79
102 101 99 97 94 92 90 87 83 80 79 78 74 70 66 65 68 71 74 78 79 78 76 74 72 70 67 64 62 61 61 64 68 71 76 80 81 80
99 97 94 91 90 89 85 80 77 74 72 72 71 68 64 61 63 64 66 69 74 78 79 79 78 76 74 71 68 66 64 64 64 64 65 68 73 76
94 90 87 87 87 84 80 76 73 70 68 68 66 64 60 58 57 57 57 57 60 67 75 79 80 79 78 76 74 72 70 68 65 62 60 61 65 69
87 84 84 85 83 78 73 71 69 67 65 64 63 61 58 55 54 51 49 47 46 49 60 66 73 76 76 76 74 72 70 67 64 61 57 56 57 61
83 82 83 82 77 72 68 65 62 60 60 61 60 58 56 53 51 47 43 40 35 33 42 46 54 61 64 65 64 63 62 61 60 58 54 51 51 55
81 83 82 77 71 68 64 60 56 54 54 56 56 55 53 51 48 42 35 27 22 21 25 27 33 40 44 46 48 50 52 53 54 53 50 48 46 49
80 81 77 71 67 64 61 57 53 51 50 51 51 50 49 46 41 33 25 17 11 11 14 15 18 23 27 30 34 38 42 45 47 47 46 45 44 45
79 76 71 66 62 59 57 55 52 49 46 43 42 42 41 36 31 25 18 11 6 5 9 11 12 15 17 22 26 30 34 38 40 40 39 40 42 42
77 70 63 60 57 54 52 51 49 46 42 38 34 31 28 24 21 19 16 12 7 4 8 11 12 14 15 18 22 26 29 32 34 35 34 35 36 37
72 63 58 55 52 49 47 45 43 40 34 29 25 20 18 17 17 16 15 13 11 8 8 10 12 14 16 18 21 24 27 29 30 31 31 31 32 34
64 57 54 51 47 44 41 39 35 30 24 20 17 16 16 16 16 15 15 14 12 9 8 9 12 14 16 18 20 23 25 27 28 29 29 29 30 32
57 52 50 47 42 39 35 32 26 20 17 16 16 16 16 16 15 14 12 11 10 8 5 6 9 13 15 18 20 22 24 25 27 28 29 29 30 32
52 49 46 41 37 32 28 22 18 17 17 18 17 16 15 14 13 12 11 9 7 5 3 3 7 10 13 16 19 21 23 24 26 26 27 28 31 34
47 44 41 36 30 23 18 15 16 18 19 19 17 15 12 11 10 10 9 8 7 5 3 3 5 8 11 14 17 20 22 23 24 26 27 28 31 34
42 39 34 28 20 14 13 15 18 19 19 16 13 12 11 11 11 10 10 10 10 9 8 8 8 9 11 13 15 18 20 22 24 25 27 29 30 32
35 32 25 18 12 12 14 17 18 17 15 13 13 12 11 11 11 11 12 13 12 12 11 11 11 11 12 14 16 18 19 21 24 25 26 28 29 29
27 22 15 11 10 13 16 16 15 14 14 14 13 13 12 11 10 11 11 11 11 11 10 10 10 10 11 12 15 17 18 20 21 23 24 26 27 28
19 13 9 9 11 14 14 13 13 14 14 14 14 13 12 11 10 9 9 8 7 7 6 5 5 5 6 8 10 13 15 17 19 20 22 23 24 25
10 7 7 10 12 12 12 12 13 13 13 13 12 12 11 10 9 8 6 5 4 3 2 2 1 3 4 6 8 11 13 15 17 19 20 22 24 26

GEFSNE_500_meanwind_018.txt.gz
Wind_Speed
77 78 80 83 87 91 95 99 104 106 105 105 107 106 106 104 101 97 93 89 86 84 82 79 77 75 74 73 74 75 78 81 83 86 91 94 95 93
78 81 84 88 91 95 99 103 108 112 114 110 107 103 98 94 89 88 87 85 81 77 74 72 70 68 66 66 66 68 71 75 79 80 83 88 94 98
81 84 88 92 96 100 104 107 109 110 112 107 100 94 88 83 81 80 80 77 74 70 68 66 64 63 62 62 63 64 66 70 75 77 78 81 87 96
84 89 93 97 101 105 107 107 106 104 103 100 92 86 81 79 76 72 70 68 67 64 63 61 60 61 62 61 61 61 63 67 73 77 76 76 78 83
90 94 99 103 105 106 105 102 99 96 92 90 86 82 78 73 69 65 62 60 59 59 58 57 58 59 60 60 60 60 61 64 70 75 75 73 71 72
95 100 103 104 104 101 97 94 91 88 85 84 82 78 72 66 64 60 56 52 51 52 53 53 55 56 56 56 57 57 58 61 66 72 73 70 67 65
100 102 102 100 96 92 88 86 84 83 82 81 76 71 66 62 58 56 53 47 43 46 47 46 48 48 47 48 48 49 51 55 62 69 72 69 65 62
102 100 97 91 86 82 80 79 80 81 79 74 69 65 61 57 54 51 48 43 37 36 39 36 38 37 37 37 38 40 43 48 56 65 69 67 64 60
99 93 87 81 78 77 76 76 76 73 70 67 64 60 56 52 49 44 39 35 30 28 28 24 27 28 28 28 29 31 34 40 49 59 65 64 61 59
90 83 79 75 74 76 76 74 70 64 61 59 57 54 51 47 43 38 31 25 21 23 24 20 19 20 20 22 24 24 24 31 42 53 60 61 59 56
79 76 75 74 75 76 75 69 61 55 52 50 48 46 44 41 39 33 28 22 16 17 22 19 16 15 15 17 18 16 15 22 34 45 53 55 55 54
74 72 73 75 74 71 66 59 52 47 43 39 38 37 36 35 34 31 27 21 15 14 18 17 16 13 10 13 11 6 5 14 25 37 45 50 52 53
75 73 72 71 67 60 55 50 45 40 35 32 30 30 30 30 30 29 27 22 17 14 15 15 14 11 7 5 5 4 4 10 19 29 37 43 48 51
76 73 69 62 55 49 44 40 36 32 29 27 27 27 27 27 26 25 24 22 19 15 13 13 11 8 5 1 3 6 10 13 16 20 26 32 38 43
72 66 58 50 44 39 35 32 28 26 25 25 26 25 24 22 21 20 20 20 18 16 12 10 8 4 1 5 8 11 15 19 20 21 22 25 28 32
60 52 45 39 35 31 28 26 25 25 25 24 22 20 19 19 18 18 17 17 16 15 12 9 6 4 5 9 13 16 20 22 23 24 24 25 27 28
49 41 36 31 27 25 23 23 23 23 22 20 19 18 18 17 17 17 17 17 15 14 12 10 8 8 11 14 18 21 23 25 25 25 25 25 26 27
40 34 29 25 22 19 19 20 20 19 18 17 17 16 16 16 16 17 17 17 17 15 13 12 11 11 14 16 20 23 25 25 25 24 24 23 25 26
34 28 24 21 18 18 18 17 17 17 16 16 15 15 15 15 15 16 16 16 17 16 15 13 13 13 15 17 21 23 24 25 23 22 22 22 23 25
28 23 19 17 17 16 16 16 16 16 16 16 15 15 14 14 14 14 14 15 15 15 14 13 13 13 15 18 20 22 23 23 22 21 21 21 23 25
21 18 16 15 15 15 15 15 16 16 16 16 15 15 14 13 12 12 12 12 13 13 13 12 12 12 14 16 18 19 21 22 22 22 22 22 23 24
16 15 14 14 14 15 16 16 17 17 17 17 16 15 13 12 11 11 10 9 10 10 10 10 10 11 12 14 16 18 19 20 21 22 23 23 24 24
14 13 13 14 15 16 17 17 18 18 18 17 16 15 13 12 11 10 9 8 7 7 6 6 7 9 10 12 14 16 18 19 20 20 21 22 22 23

GEFSNE_500_meanwind_024.txt.gz
Wind_Speed
72 72 72 73 76 79 83 88 92 93 91 94 100 105 110 114 116 117 116 114 110 107 103 99 96 93 91 90 89 88 87 88 88 88 89 91 92 95
71 71 73 76 80 85 90 95 100 105 104 103 108 111 113 114 113 110 106 101 96 92 89 87 85 84 83 82 82 81 80 80 80 81 82 84 86 88
71 74 77 82 87 92 97 102 107 113 116 113 112 110 107 103 98 94 92 89 86 83 81 80 78 77 77 76 75 74 73 72 72 72 74 76 78 81
74 79 83 88 93 99 104 109 113 116 118 116 107 99 92 87 83 80 80 80 79 76 74 73 71 70 68 67 66 66 65 65 65 65 66 69 70 73
80 85 90 95 100 106 111 114 115 113 109 105 97 88 82 78 76 73 72 70 69 66 64 63 62 61 60 60 59 58 57 56 57 58 60 62 65 67
86 92 97 102 108 112 115 114 110 104 98 92 88 82 78 73 71 66 61 57 54 53 54 54 54 53 53 52 49 48 48 49 49 51 53 56 60 63
92 97 103 109 113 114 112 107 101 94 89 86 82 76 70 64 59 53 48 43 41 44 45 46 47 46 45 43 41 39 39 39 41 43 46 50 54 58
98 103 109 112 112 107 102 96 91 86 82 77 70 63 56 50 45 41 38 35 32 35 40 38 41 39 37 35 33 32 32 32 33 35 38 43 48 53
104 109 111 109 104 97 91 85 79 72 67 61 54 48 44 41 37 34 32 30 30 33 35 31 33 31 29 28 29 29 29 30 32 33 35 37 42 48
108 110 107 100 93 87 80 73 64 55 50 45 42 40 37 35 33 31 29 27 28 31 32 28 27 25 25 26 26 26 27 29 30 32 33 36 38 43
106 103 97 89 82 75 68 58 49 42 38 36 36 34 33 33 32 30 27 25 23 26 29 27 24 22 22 23 23 23 24 25 26 27 28 29 32 37
98 90 83 77 70 62 54 46 38 32 29 28 29 30 30 30 30 29 28 26 24 23 25 24 22 19 16 19 19 19 20 22 23 22 20 19 21 27
88 78 70 64 57 50 43 37 32 28 25 25 25 25 25 26 27 28 29 28 25 22 21 19 17 15 12 11 13 15 18 20 19 17 11 6 8 17
77 68 60 52 45 39 34 30 27 25 24 23 22 22 22 23 25 26 27 28 25 22 19 17 14 11 10 11 12 15 18 19 18 15 10 8 12 21
67 58 50 43 37 32 28 25 23 22 21 21 21 21 21 22 23 24 26 26 24 21 19 15 13 11 11 12 14 17 18 18 19 17 15 16 20 27
55 47 41 35 31 27 24 22 22 21 20 20 20 21 21 22 22 22 22 22 21 20 17 14 12 12 13 14 16 18 19 20 20 18 16 18 21 27
45 38 32 28 26 24 23 22 21 21 21 21 21 21 21 21 21 20 20 20 19 16 14 12 12 12 14 16 17 18 19 20 20 20 18 18 21 25
36 30 26 23 22 20 19 20 21 21 21 21 21 20 20 19 19 19 19 18 17 13 11 10 11 12 15 16 18 19 19 20 20 20 19 18 20 23
29 25 23 21 19 18 19 19 20 21 20 20 20 20 19 18 17 17 17 16 14 11 9 9 10 12 13 14 15 16 18 20 20 19 19 19 20 22
25 22 20 18 18 19 19 19 20 21 21 20 20 19 18 17 16 15 15 13 12 9 7 7 8 10 12 13 13 14 16 18 19 20 20 20 20 22
21 19 18 18 18 19 19 20 20 20 20 20 19 18 17 15 15 14 13 11 10 8 6 5 7 8 10 12 12 12 14 15 18 19 20 20 21 23
17 16 17 17 19 20 20 21 21 21 20 19 18 17 16 14 14 13 11 10 8 6 5 4 6 8 10 11 11 12 13 14 16 17 18 20 21 22
15 15 16 18 20 21 22 22 21 21 19 18 17 16 15 14 13 12 10 8 6 4 3 3 5 7 9 10 11 11 12 14 15 16 17 19 21 22

GEFSNE_500_meanwind_030.txt.gz
Wind_Speed
64 66 69 71 73 75 76 77 79 79 79 82 88 94 101 107 113 118 121 124 124 124 121 118 114 111 108 106 103 101 100 99 98 98 99 99 100 101
66 69 71 73 74 75 77 80 84 88 90 91 97 103 110 117 121 124 124 121 117 111 105 100 96 92 89 86 84 83 82 81 82 83 84 85 86 87
69 71 73 73 75 77 81 85 91 97 101 102 106 112 115 117 115 112 107 100 93 86 82 78 75 73 71 69 68 67 67 67 68 69 71 73 76 78
71 72 73 75 78 82 86 92 98 104 110 113 113 113 109 103 96 88 80 74 70 65 61 59 56 54 53 52 52 53 54 55 56 58 60 62 65 68
72 73 75 78 82 87 93 98 104 109 113 115 111 102 91 80 71 64 59 55 53 52 50 49 47 45 43 42 41 41 42 43 45 47 50 52 55 59
73 75 79 83 89 94 99 105 109 111 109 105 96 82 69 60 56 50 45 42 41 43 43 42 42 41 40 39 37 35 35 35 36 37 40 43 47 50
74 78 83 89 95 100 105 108 108 105 97 88 75 63 55 50 45 41 38 35 36 39 38 38 40 39 39 38 37 34 32 31 31 32 33 36 38 41
78 83 89 95 100 104 107 105 99 91 80 69 59 53 48 43 39 36 34 32 32 35 35 34 36 35 35 33 32 30 28 27 27 28 29 31 33 36
84 89 94 100 104 105 101 93 82 72 64 56 50 46 42 38 34 31 30 31 34 36 33 30 32 32 31 29 26 23 23 23 24 25 27 28 30 33
89 94 99 102 102 99 91 78 66 57 52 48 44 41 37 34 32 31 29 29 32 36 34 30 29 27 26 23 20 20 19 18 20 22 24 27 30 33
93 98 101 101 96 88 76 63 53 47 44 41 40 38 35 35 33 31 30 30 29 31 32 29 27 24 21 18 18 18 19 20 21 23 25 28 31 34
96 99 99 93 83 72 61 51 44 39 36 35 35 34 34 34 34 34 33 31 29 27 27 25 23 19 16 17 18 20 21 23 25 26 27 28 30 32
97 95 89 80 68 58 49 42 37 34 32 32 31 31 31 31 32 33 33 32 29 25 24 21 18 16 15 16 19 22 23 25 26 27 27 28 29 30
93 86 76 64 55 47 40 36 33 31 30 30 30 30 29 29 30 31 31 31 28 24 20 17 15 15 15 16 18 21 24 26 26 26 26 27 27 26
83 72 62 52 44 38 35 32 29 28 28 29 29 29 29 28 27 27 28 28 26 22 17 15 14 14 15 18 20 23 24 25 25 25 25 26 26 24
69 59 50 42 37 33 31 29 28 29 29 28 28 28 28 28 27 25 24 23 21 19 15 12 11 12 14 19 23 25 26 26 25 24 25 24 24 22
56 46 39 34 31 31 30 30 31 30 30 30 29 28 28 27 26 24 23 21 18 15 12 10 10 10 13 17 21 24 25 25 24 23 23 22 22 23
45 37 31 29 28 27 28 30 30 30 30 29 29 28 26 25 24 23 21 19 16 13 10 8 7 9 11 15 19 22 23 23 23 22 22 21 21 23
36 30 28 26 26 27 28 29 29 30 29 29 28 27 25 24 22 21 19 17 15 12 9 7 6 7 9 12 16 19 21 22 21 21 20 20 21 23
29 26 25 25 26 27 28 28 29 29 29 28 27 25 24 22 20 19 17 15 13 11 8 6 4 5 6 9 12 16 19 21 20 20 19 19 19 21
24 23 23 25 26 27 28 28 28 28 27 26 25 24 22 20 18 17 15 14 12 9 7 5 3 3 4 7 10 13 16 19 20 19 18 17 18 19
21 21 23 24 26 27 28 28 28 27 27 26 25 23 21 19 17 16 14 13 11 8 5 3 2 1 2 5 7 10 13 16 18 18 16 16 16 17
19 21 22 24 26 27 28 28 27 27 26 25 24 22 20 19 17 15 13 11 10 8 5 2 0 1 2 4 6 8 11 14 16 16 17 17 16 17

GEFSNE_500_meanwind_036.txt.gz
Wind_Speed
58 60 62 64 66 68 69 71 72 73 72 73 75 78 81 85 89 92 96 100 104 106 107 106 103 98 93 88 85 83 83 84 85 88 92 96 102 108
60 62 65 66 68 69 71 72 73 75 75 76 79 83 88 93 98 102 105 107 106 103 99 92 84 76 70 65 63 61 61 61 62 64 67 70 75 81
62 64 66 68 69 70 72 73 74 76 78 79 84 89 95 100 104 106 105 101 94 86 79 71 65 59 55 52 50 49 49 50 51 52 52 54 57 62
64 66 67 69 70 72 73 75 77 80 84 86 90 96 100 103 102 98 92 84 75 67 62 57 52 49 46 45 44 44 45 46 47 48 49 49 50 52
65 67 68 69 71 73 75 78 81 86 90 94 96 99 100 98 92 83 73 65 59 55 51 47 45 43 42 42 42 42 43 43 44 45 46 46 47 48
66 67 69 70 72 75 78 83 87 92 97 99 99 97 92 84 75 64 56 51 48 46 44 43 42 41 42 42 42 41 40 40 40 40 41 42 43 44
66 68 70 72 75 79 84 89 94 98 100 100 95 87 76 65 56 50 44 41 40 41 39 39 40 40 40 39 38 37 35 34 33 32 33 34 35 37
67 69 72 75 80 84 90 95 98 99 97 92 83 71 60 52 45 40 38 35 35 37 36 36 38 37 36 35 32 30 28 27 27 27 27 28 28 30
69 72 76 80 85 90 94 96 95 92 86 77 66 56 49 43 38 35 34 34 34 35 33 32 33 32 31 28 25 24 24 23 24 24 25 26 27 27
72 76 81 86 91 94 94 92 87 80 71 62 54 47 43 39 36 34 32 31 31 34 33 30 29 28 26 24 23 22 22 23 24 25 26 26 27 28
76 81 86 90 93 93 90 84 75 65 56 50 45 42 39 37 36 33 32 31 29 30 31 29 27 25 24 23 22 22 22 24 26 27 27 28 29 29
81 86 90 92 91 87 81 71 60 51 45 42 40 39 37 37 36 35 33 31 29 27 27 26 25 22 20 22 21 22 24 26 28 29 30 30 31 31
85 89 90 88 84 76 67 57 48 42 38 37 36 36 36 36 36 35 34 33 30 27 26 24 22 20 18 17 20 23 25 27 29 30 30 30 31 31
88 88 86 80 72 62 53 45 40 37 35 34 34 35 34 35 34 34 34 33 31 27 24 23 20 19 17 16 18 20 24 28 29 28 28 27 28 29
86 83 76 67 57 48 42 38 35 33 33 33 34 34 34 34 33 32 32 31 30 27 23 21 19 17 16 16 17 19 22 24 26 25 25 25 27 28
80 72 62 52 43 38 34 32 31 32 32 33 33 33 33 32 31 29 28 27 27 26 23 19 17 16 15 16 17 20 23 24 23 22 23 25 27 30
69 58 47 39 34 31 30 30 31 32 32 32 32 31 31 30 29 28 26 25 23 22 21 20 17 15 14 14 16 20 22 22 21 21 21 24 27 30
53 43 36 31 29 28 29 30 31 31 31 31 31 30 29 28 27 26 25 23 21 20 18 17 16 15 14 14 15 18 20 20 19 19 20 23 25 28
39 32 28 26 26 27 28 29 31 31 31 31 30 28 27 26 26 25 23 21 19 18 15 14 13 12 11 12 14 16 17 17 17 17 19 21 23 25
28 24 23 24 25 27 28 29 31 31 31 30 29 27 26 25 25 23 21 19 17 16 14 11 10 9 8 8 10 13 15 15 15 15 17 19 22 24
21 20 21 23 25 27 28 29 30 30 30 29 28 27 26 24 23 21 19 17 15 13 12 10 8 7 6 7 9 11 13 14 14 14 16 18 19 20
17 18 21 23 26 28 29 29 29 29 29 29 28 26 25 23 20 18 16 15 13 12 9 7 5 4 4 5 8 10 11 12 13 14 15 16 16 17
16 18 21 24 26 28 28 29 29 28 28 28 27 25 23 21 18 16 15 13 11 9 7 4 2 1 2 4 7 9 10 10 12 13 13 13 14 15

GEFSNE_500_meanwind_042.txt.gz
Wind_Speed
51 52 53 54 56 58 60 62 65 66 65 65 67 68 70 72 73 75 77 80 83 87 91 94 96 98 98 98 96 93 91 88 86 84 83 84 84 86
51 52 54 56 58 60 62 65 67 69 70 69 70 72 73 75 77 80 84 88 91 95 97 98 98 96 92 87 81 76 71 67 65 64 64 64 64 65
52 54 56 58 60 62 65 67 68 70 71 71 73 75 78 80 83 87 91 94 96 97 97 95 91 84 77 71 64 58 55 53 51 50 50 50 51 52
54 56 58 60 63 65 67 68 69 71 74 74 75 79 82 86 89 92 94 95 94 92 88 83 76 69 62 55 50 47 45 44 43 43 44 45 46 46
56 58 60 63 65 67 68 69 71 73 76 78 80 84 88 92 93 93 92 90 86 80 74 68 61 55 50 46 44 42 40 39 39 39 39 40 41 41
58 60 63 64 66 67 69 71 73 76 79 83 86 89 91 93 93 90 85 79 72 67 61 56 50 47 45 43 41 39 37 36 36 35 35 35 35 35
60 62 64 65 67 69 71 73 76 80 84 88 90 91 91 91 87 82 75 66 59 56 50 47 45 43 42 41 39 37 36 35 34 33 32 32 32 32
61 63 65 66 68 70 73 77 82 86 90 92 92 91 89 85 78 69 61 54 47 47 44 41 42 40 39 38 38 36 35 33 33 32 31 31 31 31
62 63 65 67 70 73 77 82 87 91 93 92 90 86 80 72 64 57 52 47 43 43 42 38 39 38 38 38 37 35 34 32 32 31 31 30 30 30
62 64 66 70 74 78 82 86 89 91 90 87 82 74 65 58 52 48 45 42 39 41 42 38 36 35 36 37 37 34 32 31 30 30 29 29 29 30
63 66 70 74 78 83 87 89 88 86 81 74 66 59 52 49 46 44 42 40 38 39 41 38 36 34 34 36 35 33 31 30 29 28 28 27 28 29
65 70 74 78 83 88 89 87 81 73 65 57 52 49 46 44 44 43 43 41 39 37 38 36 35 34 31 33 34 32 29 28 28 27 27 28 29 29
69 73 78 83 87 88 84 76 67 58 51 47 44 43 42 42 43 43 43 41 39 37 36 34 32 32 30 28 30 30 28 27 26 26 27 29 30 30
73 77 82 85 85 79 70 60 53 48 44 42 41 40 41 41 42 42 41 40 38 36 33 32 30 28 27 25 25 26 27 26 26 26 27 29 30 30
77 80 82 80 73 63 54 48 43 40 39 38 38 39 40 41 40 39 38 37 36 36 33 30 28 26 25 22 21 22 23 25 26 25 26 27 28 28
77 78 75 67 57 48 42 38 37 37 37 37 37 39 39 39 39 37 35 33 31 32 33 30 27 25 22 19 18 19 20 21 23 24 24 25 26 25
74 70 61 51 42 38 35 34 35 36 37 37 38 38 38 38 37 36 33 30 29 27 27 28 27 24 20 17 15 16 17 18 20 21 21 21 23 25
65 56 46 38 33 31 32 33 35 35 36 37 37 37 37 36 34 33 31 28 27 26 25 23 22 21 19 17 15 13 14 16 18 20 20 19 21 24
51 42 34 30 28 29 31 33 34 35 36 36 36 36 35 34 33 30 28 26 25 25 24 22 19 16 15 15 16 14 14 15 17 19 20 20 20 23
38 31 27 25 27 29 31 33 34 35 35 35 35 35 34 33 31 29 26 25 23 22 21 19 16 14 11 10 12 15 16 16 16 17 19 20 21 22
28 24 23 24 27 29 31 33 34 35 35 36 36 35 33 32 29 27 25 23 21 19 17 15 14 12 10 10 11 14 16 17 17 17 17 18 19 21
21 20 22 24 27 29 31 33 34 35 36 36 35 34 32 30 27 25 23 21 19 17 15 13 12 11 10 11 12 13 15 17 18 19 19 18 18 18
18 19 21 24 27 29 31 32 33 34 35 35 34 33 31 28 26 24 21 18 16 15 13 13 12 11 12 12 13 14 14 15 17 18 19 18 19 19

GEFSNE_500_meanwind_048.txt.gz
Wind_Speed
45 46 47 48 49 50 52 54 55 56 57 58 60 61 63 64 66 67 68 69 71 72 74 76 78 80 82 84 86 88 90 91 92 93 94 94 94 94
45 47 49 51 52 53 56 58 59 60 61 62 63 65 66 67 68 69 71 72 74 77 79 82 84 86 88 89 91 91 92 91 90 88 86 85 83 82
46 49 51 53 55 56 58 60 62 64 64 65 67 68 69 70 71 73 75 77 79 82 85 88 89 91 92 91 90 88 85 82 79 77 75 72 69 67
48 51 53 56 58 60 61 63 64 66 67 68 69 70 72 73 75 77 79 82 85 88 90 92 92 91 89 86 82 78 74 71 68 65 61 59 57 55
50 53 56 59 60 62 63 65 66 67 69 70 71 72 74 77 79 81 84 87 90 92 92 91 88 84 80 76 72 68 64 61 57 54 52 51 49 47
53 56 59 60 62 64 65 66 68 69 71 72 73 75 77 80 83 85 87 89 89 89 87 82 78 74 70 66 63 59 56 52 49 47 46 45 43 43
56 59 61 62 64 65 67 68 69 70 72 73 75 77 81 84 87 89 88 85 81 79 75 71 68 64 61 59 56 53 50 47 45 44 43 41 41 40
57 60 62 63 65 66 68 69 71 72 74 77 80 83 86 88 88 85 82 76 68 66 64 59 58 56 54 53 51 50 47 44 43 42 41 40 40 39
59 61 62 64 65 67 68 70 72 76 79 82 84 87 87 85 81 74 68 63 58 57 55 51 51 49 49 49 48 47 45 43 41 40 39 39 39 38
59 61 62 63 65 67 70 72 76 80 83 85 85 84 79 73 67 61 56 53 50 52 53 48 47 46 44 45 46 45 43 41 39 38 38 38 37 37
58 60 62 64 67 70 73 76 79 81 82 81 78 72 66 61 56 53 50 49 47 47 50 48 45 42 40 41 43 42 40 38 36 36 36 36 36 35
58 61 64 67 71 73 75 77 77 77 75 71 65 60 56 53 51 50 49 48 47 45 46 45 42 40 35 35 38 39 37 34 32 32 32 32 32 32
59 63 66 70 73 75 76 75 73 69 64 57 53 51 50 49 50 49 48 48 47 45 44 41 38 36 34 31 32 35 35 32 30 29 28 28 29 30
62 66 70 72 74 74 72 69 64 57 51 47 46 46 47 47 47 47 47 47 45 43 41 38 35 32 31 29 28 30 32 30 27 25 25 25 25 26
66 70 72 72 71 68 63 57 51 45 43 42 43 44 45 45 45 44 44 42 42 41 39 36 32 29 27 25 23 25 25 26 25 23 22 21 22 24
69 70 70 67 63 57 51 45 40 39 39 40 41 43 43 44 43 42 39 38 36 36 37 34 30 27 24 22 21 20 21 21 22 21 19 19 21 22
67 66 62 57 51 45 40 37 36 36 37 39 40 41 41 41 40 39 37 35 33 31 29 30 28 25 23 20 17 16 16 17 18 18 18 18 20 21
61 56 51 45 40 36 33 33 34 34 36 37 39 39 38 38 37 36 34 32 30 27 25 23 22 21 22 21 17 12 12 13 14 15 16 16 19 22
52 46 40 36 32 30 30 31 31 32 34 36 37 37 36 35 34 33 31 29 27 24 22 20 18 16 16 17 18 14 11 12 13 15 16 17 19 22
42 36 32 29 28 28 29 29 29 31 33 34 35 35 34 33 33 31 29 26 23 21 20 19 17 16 15 14 15 16 14 12 13 15 17 19 20 21
34 30 27 26 26 27 27 28 29 30 32 33 33 33 33 32 31 29 27 24 22 19 17 17 17 17 16 15 15 16 17 16 16 16 17 17 18 20
28 26 24 24 25 26 27 28 29 30 31 31 31 31 32 31 29 28 25 23 21 20 19 18 18 18 17 17 15 15 15 17 18 18 17 16 17 18
25 24 23 23 24 25 26 28 28 29 30 30 30 30 30 29 28 26 24 23 22 21 20 19 19 19 18 17 16 15 15 16 17 18 18 18 18 18

GEFSNE_500_meanwind_054.txt.gz
Wind_Speed
52 51 51 50 51 51 50 50 51 51 53 54 56 58 60 61 63 64 65 66 68 69 70 71 72 73 74 75 75 76 77 77 78 79 80 82 83 84
52 51 50 50 51 51 50 51 53 54 55 57 59 61 63 64 66 68 69 70 71 72 73 74 75 76 76 77 78 79 80 81 82 83 84 86 87 87
51 50 50 50 51 51 51 54 56 57 59 61 64 65 67 68 69 71 72 72 74 75 75 76 77 78 80 81 82 83 84 85 86 87 87 87 88 87
50 49 49 50 51 52 54 57 58 60 62 64 66 67 69 71 72 73 74 75 76 77 78 79 81 82 84 85 86 86 86 86 86 85 85 84 83 82
48 48 48 49 51 53 56 59 61 63 64 66 67 69 71 72 73 74 76 77 78 80 82 83 84 85 85 85 84 83 82 81 79 78 77 76 75 74
45 46 48 50 53 55 58 60 62 64 66 68 70 71 72 74 75 76 77 79 81 83 84 83 83 82 82 81 78 76 74 72 70 68 66 65 64 64
44 46 48 51 54 56 58 61 63 66 68 69 70 72 74 76 78 79 80 80 81 81 80 79 78 76 74 72 70 67 65 63 61 59 58 57 56 56
43 46 48 52 55 57 60 62 64 66 68 70 71 74 76 78 79 80 79 78 75 74 72 69 68 65 63 62 62 61 60 58 56 55 52 51 50 49
44 47 49 53 56 57 59 61 64 67 70 72 74 76 77 78 77 75 73 70 67 66 63 59 59 59 59 59 59 58 56 54 52 50 48 46 45 44
43 46 49 52 55 57 59 62 65 68 71 73 74 75 74 73 71 68 66 62 59 59 59 56 55 55 54 53 53 53 51 49 48 46 44 42 41 41
43 46 49 52 55 57 60 63 66 68 70 71 72 71 69 67 64 61 57 56 54 54 56 54 51 48 46 46 48 49 48 46 43 41 39 37 36 36
44 47 50 53 55 58 61 63 65 67 68 69 68 65 61 57 55 53 52 52 51 49 49 47 45 45 40 39 42 43 43 42 40 37 33 31 31 31
45 48 51 54 57 60 62 63 64 65 64 61 58 54 50 48 48 48 49 48 47 45 45 43 41 40 38 35 34 37 38 38 37 34 31 28 28 27
46 49 52 55 58 60 62 62 61 59 55 51 47 44 43 43 43 45 45 45 44 43 42 40 38 36 34 31 29 30 33 34 33 30 28 26 25 24
47 51 54 56 59 60 60 57 53 50 46 43 41 39 39 40 41 42 42 42 42 42 41 39 35 33 31 28 25 25 25 27 29 26 25 23 23 22
50 53 55 58 58 56 52 48 45 42 40 38 37 37 37 38 39 40 39 38 38 39 40 37 34 32 29 27 24 22 22 22 23 23 21 20 20 19
52 54 56 55 52 48 44 41 40 38 37 36 35 35 35 36 37 38 37 36 36 35 34 35 34 32 30 27 23 21 20 20 20 20 19 19 20 18
53 54 52 49 45 41 39 38 36 35 34 34 33 33 33 34 35 36 35 35 35 34 33 32 30 29 27 28 27 22 20 20 20 20 19 18 19 19
53 51 46 42 39 37 36 35 34 34 34 33 32 32 32 33 34 34 34 34 34 33 33 32 30 27 24 23 25 25 21 19 19 20 20 18 18 19
49 45 40 38 36 35 34 33 33 33 33 32 32 32 32 32 33 33 33 33 32 31 31 32 31 29 26 23 22 24 23 20 19 19 19 20 20 20
45 41 38 36 34 33 32 32 33 32 32 32 31 31 31 31 32 32 32 32 31 31 31 31 31 30 27 24 23 23 23 22 21 19 18 19 20 21
43 39 36 34 32 31 32 32 32 31 31 31 30 30 31 31 31 32 32 31 30 30 30 31 31 29 27 25 23 22 21 22 23 22 21 19 19 19
41 38 35 32 31 31 31 31 31 31 31 30 30 30 30 31 31 31 31 31 30 30 30 30 29 29 28 26 25 23 22 21 21 22 22 22 21 20

GEFSNE_500_meanwind_060.txt.gz
Wind_Speed
61 60 59 58 57 57 57 58 59 59 58 59 60 59 60 61 60 61 62 63 63 63 64 64 65 65 66 67 68 69 71 72 73 73 74 74 74 75
60 60 59 58 58 58 59 59 60 60 60 60 61 61 62 62 63 64 64 64 65 66 67 67 68 69 70 71 72 74 75 76 76 77 78 78 79 80
58 58 58 57 58 58 58 59 60 59 60 61 61 62 62 63 64 64 65 66 66 67 68 69 70 72 73 75 76 76 76 77 77 78 79 80 81 82
54 54 55 55 57 57 58 58 58 58 59 60 60 60 62 63 63 64 65 66 67 69 70 72 73 74 75 76 76 77 77 77 78 79 80 81 81 82
48 49 50 51 53 54 54 54 55 56 58 59 59 60 61 62 63 64 65 66 68 70 71 73 74 75 76 76 76 77 77 78 78 77 77 77 78 79
42 44 45 47 49 50 51 53 54 56 58 58 58 59 61 62 63 63 65 67 69 71 73 74 75 75 76 76 76 77 76 75 74 73 72 72 72 72
38 40 41 44 46 47 49 51 53 54 55 55 57 59 60 61 62 64 65 67 70 71 72 73 73 73 73 73 73 72 70 69 67 65 64 64 63 63
34 36 38 40 42 44 47 48 50 51 52 54 56 58 59 61 63 65 66 68 68 69 68 68 68 67 66 65 65 63 62 60 59 57 56 56 56 56
30 33 35 38 40 43 44 46 47 49 52 54 56 58 60 61 63 65 66 66 66 66 63 60 60 58 58 57 57 56 54 53 51 50 49 49 49 50
27 30 33 35 37 39 42 45 47 50 52 54 56 58 60 61 62 63 62 61 60 59 57 53 53 53 53 53 52 51 50 48 45 44 43 43 43 43
25 28 31 34 37 40 42 45 48 51 53 55 57 58 59 60 59 58 56 54 51 51 50 48 47 46 47 48 49 48 46 43 41 40 38 37 37 37
26 29 32 35 38 41 44 47 49 51 53 55 55 56 56 55 54 52 50 47 45 44 44 43 43 43 40 42 44 45 43 41 39 36 33 32 32 32
29 32 35 37 40 42 45 48 50 51 52 53 53 52 51 50 49 47 45 43 42 41 41 40 39 40 38 36 39 42 41 39 36 34 32 30 30 29
32 35 37 40 42 44 46 48 50 51 51 51 50 49 48 47 44 42 40 40 40 39 39 38 38 37 36 36 36 37 38 37 34 32 31 30 29 28
35 37 40 42 44 46 48 49 50 50 49 48 47 46 44 42 39 38 37 38 38 38 38 37 36 36 36 36 34 33 33 33 33 31 30 29 27 25
37 40 42 43 45 47 48 49 49 48 47 45 43 41 39 38 37 36 36 36 37 38 37 36 36 36 36 35 33 32 31 29 29 29 27 26 25 22
40 41 43 44 46 47 48 48 47 45 43 40 39 38 37 36 36 35 35 35 35 35 35 36 36 35 35 34 33 31 29 28 28 26 25 25 24 21
42 43 44 45 46 47 47 46 44 42 40 38 36 35 35 35 35 35 34 34 33 33 34 34 34 33 32 33 34 32 30 29 28 27 25 23 23 22
43 44 45 46 46 47 46 45 42 40 38 36 34 34 34 34 34 34 33 33 32 33 34 34 33 31 29 29 31 32 29 27 26 26 26 24 22 22
44 45 46 47 47 46 45 42 40 37 35 34 33 33 33 32 32 32 32 31 31 32 32 33 32 31 30 29 28 29 30 27 26 25 25 24 23 22
45 46 47 47 46 44 43 40 37 35 34 33 33 32 32 31 31 31 31 31 30 30 30 31 32 32 31 30 29 28 28 28 28 26 24 22 21 21
46 47 46 45 44 43 40 37 35 34 32 32 31 31 30 31 31 30 30 29 29 29 29 30 31 32 31 31 29 28 27 27 28 27 25 23 21 19
47 46 45 44 42 40 37 34 33 32 31 30 30 30 30 30 30 30 30 29 29 29 29 29 30 31 31 31 30 29 27 26 26 26 26 25 22 20

GEFSNE_500_meanwind_066.txt.gz
Wind_Speed
57 57 58 58 58 58 57 57 57 57 57 57 57 58 57 56 55 55 55 55 56 56 56 56 57 58 59 59 60 60 61 62 62 62 62 63 63 64
54 54 55 56 56 55 55 55 56 57 57 57 57 57 57 57 57 59 58 56 57 57 57 58 58 59 60 60 61 61 62 62 63 63 64 64 65 66
48 49 49 50 51 52 53 53 55 55 56 56 57 56 56 57 59 59 59 58 58 59 60 60 60 60 60 61 61 62 62 63 64 64 65 65 67 68
42 42 43 44 45 46 48 49 49 50 51 53 54 55 56 57 57 58 59 60 59 59 60 60 60 60 61 61 62 62 62 63 63 64 65 67 68 69
36 36 36 38 39 40 42 43 44 46 48 49 51 54 54 55 56 57 57 58 58 59 59 59 60 60 60 60 61 61 62 63 64 65 66 67 69 70
30 31 32 33 34 35 36 38 39 41 43 46 48 50 51 53 54 55 56 57 57 58 58 58 58 59 60 60 61 61 62 63 63 64 65 66 67 68
25 26 27 29 29 31 32 33 36 38 41 43 46 49 50 51 52 53 55 56 56 57 57 58 58 59 60 61 61 61 61 61 61 61 61 61 62 63
23 23 24 24 26 27 30 32 34 37 39 42 45 46 48 49 50 52 54 55 55 56 56 57 58 58 59 59 58 58 58 57 56 55 55 55 56 57
19 20 21 23 24 25 28 30 33 36 38 41 43 44 46 47 50 51 53 54 54 55 54 55 56 56 56 55 55 54 54 52 50 49 48 48 48 48
20 20 21 22 24 26 29 31 33 36 38 41 42 44 46 48 49 51 52 53 54 54 53 52 52 52 52 52 52 51 49 46 45 44 44 44 43 44
20 21 23 24 26 28 30 32 35 37 39 42 44 46 48 49 50 52 52 52 52 53 52 49 48 47 47 48 48 47 45 44 43 42 42 41 40 40
23 25 27 28 30 31 33 35 38 40 42 44 46 48 49 50 51 51 51 51 51 50 49 46 45 44 42 44 45 45 43 42 42 41 40 39 38 37
26 28 29 31 33 35 37 39 40 42 44 46 47 49 50 51 52 52 51 50 49 47 45 43 42 42 40 38 40 41 41 40 40 39 38 37 37 36
29 31 32 34 35 37 39 41 43 45 46 48 49 50 51 52 51 50 49 48 46 44 42 40 38 38 36 35 35 37 38 38 36 36 36 36 36 35
31 33 35 36 38 40 42 43 45 46 48 49 49 50 50 49 48 46 44 42 41 40 38 37 36 35 35 34 33 34 34 34 34 33 33 34 33 32
34 36 37 39 40 42 44 45 47 48 48 48 48 48 47 45 42 40 39 38 37 37 37 36 34 33 33 33 33 32 32 31 31 31 31 31 31 29
36 38 40 41 42 44 45 47 48 48 48 47 47 46 44 42 40 38 38 37 35 34 35 34 33 32 33 33 32 32 31 30 30 29 28 28 29 28
38 40 41 42 43 45 47 48 48 47 47 47 45 43 41 40 38 37 36 34 33 32 32 33 32 31 31 32 33 31 30 29 29 29 28 26 26 27
40 41 42 44 45 47 48 48 48 47 46 45 43 41 40 38 37 35 34 32 31 31 32 32 31 29 28 28 30 33 30 28 28 28 28 27 25 25
41 42 44 45 47 48 49 48 47 46 45 44 42 40 39 37 35 34 32 31 30 30 30 31 31 30 29 28 27 30 32 29 28 28 27 27 26 25
42 44 45 46 48 49 49 47 46 45 44 43 41 40 38 37 35 33 32 31 31 30 29 30 31 31 30 28 27 27 30 32 30 28 27 26 25 25
44 45 46 47 49 49 48 47 46 45 43 42 40 39 37 36 34 33 32 31 30 30 29 30 30 30 30 29 28 27 28 30 31 30 28 26 24 23
45 46 47 48 49 48 47 46 45 44 43 41 39 38 36 35 33 32 31 31 30 30 30 29 29 29 30 30 29 28 28 28 28 28 29 28 26 24

GEFSNE_500_meanwind_072.txt.gz
Wind_Speed
47 49 51 51 52 52 52 52 52 50 48 48 48 48 47 46 47 47 49 49 51 52 50 48 49 49 50 49 49 49 49 50 50 51 51 51 52 52
46 47 48 47 47 48 48 47 47 47 45 44 45 45 44 44 43 44 45 46 47 49 50 49 49 51 50 50 51 50 50 51 51 52 53 52 53 54
44 44 43 43 43 44 43 42 42 42 41 40 41 41 41 42 41 42 44 45 46 48 48 48 49 49 50 50 51 52 52 52 52 53 54 55 56 56
41 40 40 40 41 41 39 38 37 37 37 37 37 37 38 38 40 41 42 44 45 47 48 49 49 50 50 51 52 52 53 52 53 53 54 55 55 56
37 38 38 37 37 36 35 35 35 34 34 35 35 35 36 36 38 39 41 42 44 45 46 48 49 49 50 51 51 51 52 52 52 53 53 54 55 56
35 35 34 34 33 32 32 32 32 31 31 31 32 33 34 35 37 39 40 42 43 45 46 47 48 49 50 51 51 51 52 52 53 53 54 54 55 56
33 32 32 32 31 30 29 29 29 29 29 30 31 32 33 34 36 38 40 42 43 45 46 48 48 49 50 51 51 52 52 52 53 53 54 55 55 56
31 31 31 30 30 29 29 29 29 29 29 30 32 33 34 36 37 39 41 43 45 46 47 49 50 51 52 53 53 53 53 53 53 53 54 54 55 55
30 30 30 29 29 29 29 29 30 30 31 32 33 34 35 37 39 41 43 45 47 48 49 51 52 53 54 54 54 54 53 53 53 52 52 53 53 53
30 30 30 30 30 30 30 31 31 32 33 34 35 36 38 39 41 42 44 47 49 50 51 52 53 53 54 54 53 53 53 52 52 51 51 50 50 50
29 30 30 31 31 31 32 33 33 34 36 37 38 39 40 42 43 45 47 48 50 51 51 51 51 52 52 52 52 51 51 50 49 48 47 47 46 46
30 31 31 32 32 33 34 35 36 37 38 39 40 41 42 43 45 47 48 49 49 49 49 48 48 47 47 48 48 48 46 45 43 43 43 43 43 43
31 32 33 34 34 35 36 37 38 39 40 41 42 43 44 45 46 47 48 47 47 46 46 45 45 45 44 44 44 44 42 41 40 39 39 39 39 39
33 33 34 35 36 37 37 39 39 40 41 43 44 45 46 46 47 47 47 46 46 45 45 44 43 43 42 41 40 41 40 39 38 37 37 37 37 37
33 34 35 36 37 38 39 40 41 42 44 45 46 46 47 47 47 47 47 46 46 45 43 42 41 40 39 38 37 37 37 37 36 35 35 36 36 36
34 35 36 37 38 40 41 42 43 44 45 46 47 47 48 48 48 47 47 46 45 45 43 41 39 37 36 35 33 33 34 33 34 34 33 34 34 34
35 36 37 39 40 41 42 43 44 45 46 47 48 48 48 48 48 47 46 45 43 43 42 41 38 36 34 33 32 32 31 31 31 31 31 31 33 33
37 38 39 40 42 43 43 44 45 47 48 48 49 49 48 48 48 47 45 43 42 41 40 39 36 34 32 32 32 30 30 29 29 30 30 30 31 33
38 39 41 42 43 44 44 46 47 48 48 49 49 49 49 48 47 46 44 42 40 39 38 37 34 32 30 30 31 31 30 29 29 30 30 30 30 31
39 40 42 43 44 44 45 47 48 48 49 49 49 49 48 47 46 44 43 41 39 37 36 36 34 32 30 29 29 31 33 31 30 30 31 30 30 30
40 41 43 44 44 45 47 48 48 49 49 49 49 49 48 46 45 43 41 40 37 35 34 34 34 33 31 29 28 29 32 33 32 30 29 29 28 29
41 42 44 45 45 47 48 48 49 49 49 49 49 48 47 46 44 42 40 38 36 34 33 33 33 32 31 30 28 28 30 32 33 31 30 29 27 26
42 44 45 46 47 47 48 48 49 49 48 48 48 47 46 44 43 41 39 37 35 33 32 31 31 31 31 30 29 28 29 29 30 30 30 30 28 26